Location: *
(31.2983°S, 151.4094°E)
Time: 01:27:56
(UTC+00:00)

ATLAS CENTAUR R/B - Pass Details

Date: 25 August 2019
Orbit: 231 x 6478 km, 57.3° (Epoch: 23 October)

Event Time Altitude Azimuth Distance (km) Brightness Sun altitude
Exits shadow 18:37:48 27° 315° (NW) 2,016 4.2 -22.3°
Maximum altitude 18:41:31 72° 235° (SW) 787 2.3 -21.5°
Drops below altitude 10° 18:44:55 10° 149° (SSE) 1,652 4.6 -20.7°
Sets 18:46:21 0° 146° (SE) 2,289 5.5 -20.4°
